{"data":{"norad_id":69348,"intl_designator":"2026-122V","name":"STARLINK-37775","alt_names":[],"object_type":"PAYLOAD","status":"ACTIVE","operator":null,"country":"US","launch_date":"2026-06-03","launch_site_code":"AFWTR","launch_vehicle":null,"mission":null,"orbit_class":"UNKNOWN","rcs_meters":null,"size_class":null,"mass_kg":null,"dimensions":null,"purposes":["comms"],"wikipedia_slug":null,"has_3d_model":false,"image_url":null,"decayed_at":null,"tle_current":{"epoch":"2026-09-19T01:46:54.663456Z","epoch_age_seconds":152145,"freshness":"FRESH","line1":"1 69348U 26122V   26262.07424379  .00014561  00000+0  45253-3 0  9995","line2":"2 69348  97.2807 290.7579 0001585 111.3179 248.8233 15.33441052 16584","mean_motion":15.33441052,"eccentricity":0.0001585,"inclination_deg":97.2807,"raan_deg":290.7579,"arg_perigee_deg":111.3179,"mean_anomaly_deg":248.8233,"bstar":0.00045253,"rev_number":1658,"period_min":93.906446427913,"perigee_km":464.4701958042,"apogee_km":466.63964614315,"semimajor_km":6843.6919209737,"source":"CELESTRAK","updated_at":"2026-09-20T09:00:44.162970Z"}}}